DW9439 Weather Reports


Display with metric or nautical units.
time (UTC)temp
F
wind
direction
speed
MPH
gust
MPH
rain 1hr
in
rain 24hr
in
rain mn
in
humidity
%
barometer
mb
20260509030057 54 36 0.0 0.0 0.00 0.00 0.00 60 1018.7
20260509025754 54 36 0.0 0.0 0.00 0.00 0.00 60 1018.5
20260509025441 55 36 0.0 0.0 0.00 0.00 0.00 59 1018.5
20260509025137 55 36 0.0 0.0 0.00 0.00 0.00 59 1018.5
20260509024831 56 36 0.0 0.0 0.00 0.00 0.00 58 1018.4
20260509024529 56 36 0.0 0.0 0.00 0.00 0.00 58 1018.4
20260509024216 56 36 0.0 3.0 0.00 0.00 0.00 58 1018.4
20260509023918 56 36 0.0 3.0 0.00 0.00 0.00 57 1018.3
20260509023615 56 36 0.0 0.0 0.00 0.00 0.00 57 1018.3
20260509023302 57 36 0.0 0.0 0.00 0.00 0.00 56 1018.3
20260509023001 57 36 0.0 0.0 0.00 0.00 0.00 55 1018.2
20260509022654 57 36 0.0 3.0 0.00 0.00 0.00 55 1018.2
20260509022341 58 36 0.0 0.0 0.00 0.00 0.00 54 1018.2
20260509022041 59 36 0.0 0.0 0.00 0.00 0.00 54 1018.1
20260509021727 59 36 0.0 1.0 0.00 0.00 0.00 53 1018.3
20260509021421 59 36 0.0 1.0 0.00 0.00 0.00 51 1018.2
20260509020706 60 36 0.0 1.0 0.00 0.00 0.00 51 1018.1
20260509015935 61 36 0.0 0.0 0.00 0.00 0.00 49 1018.0
20260509015627 62 36 0.0 0.0 0.00 0.00 0.00 47 1018.1
20260509015320 63 36 0.0 0.0 0.00 0.00 0.00 47 1018.1
20260509014559 64 36 0.0 3.0 0.00 0.00 0.00 45 1017.9
20260509014257 65 36 0.0 3.0 0.00 0.00 0.00 44 1017.9
20260509013954 66 36 1.0 3.0 0.00 0.00 0.00 43 1017.9
20260509013648 67 36 0.0 3.0 0.00 0.00 0.00 42 1017.9
20260509013337 67 36 0.0 3.0 0.00 0.00 0.00 41 1017.9
20260509012622 69 36 0.0 0.0 0.00 0.00 0.00 40 1018.0
20260509012315 69 36 0.0 0.0 0.00 0.00 0.00 39 1018.0
20260509012003 70 36 0.0 0.0 0.00 0.00 0.00 40 1017.9
20260509011254 70 36 0.0 0.0 0.00 0.00 0.00 39 1017.9
20260509010952 70 36 0.0 0.0 0.00 0.00 0.00 38 1017.9
20260509010641 70 36 0.0 0.0 0.00 0.00 0.00 38 1017.8
20260509010341 71 36 1.0 0.0 0.00 0.00 0.00 38 1017.8
20260509005155 72 36 2.0 5.0 0.00 0.00 0.00 36 1017.8
20260509004843 72 36 1.0 4.0 0.00 0.00 0.00 36 1017.8
20260509004533 73 36 0.0 4.0 0.00 0.00 0.00 36 1017.8
20260509003803 73 36 2.0 5.0 0.00 0.00 0.00 35 1017.9
20260509003450 73 36 3.0 5.0 0.00 0.00 0.00 34 1017.9
20260509003153 73 36 3.0 6.0 0.00 0.00 0.00 34 1017.9
20260509002433 73 36 3.0 6.0 0.00 0.00 0.00 34 1017.8
20260509002136 73 36 4.0 10.0 0.00 0.00 0.00 33 1017.8
20260509001832 73 36 4.0 10.0 0.00 0.00 0.00 34 1017.8
20260509001529 73 36 5.0 10.0 0.00 0.00 0.00 33 1017.7
20260509001226 73 36 5.0 10.0 0.00 0.00 0.00 33 1017.6
20260509000914 73 36 5.0 10.0 0.00 0.00 0.00 33 1017.6
20260509000616 73 36 5.0 10.0 0.00 0.00 0.00 33 1017.5
20260509000304 73 36 5.0 9.0 0.00 0.00 0.00 34 1017.5
20260508235552 74 36 5.0 9.0 0.00 0.00 0.00 33 1017.5
20260508235240 74 36 5.0 11.0 0.00 0.00 0.00 33 1017.6
20260508234943 74 36 6.0 11.0 0.00 0.00 0.00 33 1017.7
20260508234210 74 35 6.0 11.0 0.00 0.00 0.00 33 1017.6
20260508233906 74 34 6.0 11.0 0.00 0.00 0.00 33 1017.6
20260508233607 74 34 6.0 11.0 0.00 0.00 0.00 32 1017.5
20260508233303 74 34 5.0 11.0 0.00 0.00 0.00 33 1017.5
20260508232954 74 35 5.0 11.0 0.00 0.00 0.00 33 1017.5
20260508232646 74 34 6.0 11.0 0.00 0.00 0.00 33 1017.5
20260508231921 74 34 6.0 13.0 0.00 0.00 0.00 32 1017.5
20260508231619 74 42 5.0 13.0 0.00 0.00 0.00 33 1017.4
20260508231324 74 44 6.0 15.0 0.00 0.00 0.00 32 1017.4
20260508231019 74 44 6.0 15.0 0.00 0.00 0.00 33 1017.3
20260508230714 74 37 7.0 15.0 0.00 0.00 0.00 33 1017.3
20260508230403 74 34 8.0 15.0 0.00 0.00 0.00 33 1017.3
20260508230106 74 23 9.0 15.0 0.00 0.00 0.00 33 1017.3
20260508225751 74 21 8.0 15.0 0.00 0.00 0.00 33 1017.2
20260508225446 74 22 8.0 15.0 0.00 0.00 0.00 32 1017.1
20260508225143 74 39 7.0 13.0 0.00 0.00 0.00 33 1017.1
20260508224843 74 32 7.0 13.0 0.00 0.00 0.00 34 1017.1
20260508224535 75 32 8.0 13.0 0.00 0.00 0.00 33 1017.2
20260508224229 75 29 7.0 13.0 0.00 0.00 0.00 33 1017.1
20260508223923 75 34 7.0 13.0 0.00 0.00 0.00 33 1017.3
20260508223625 75 32 8.0 14.0 0.00 0.00 0.00 34 1017.3
20260508223323 75 33 9.0 14.0 0.00 0.00 0.00 33 1017.4
20260508223023 75 20 9.0 14.0 0.00 0.00 0.00 33 1017.4
20260508222717 75 0 9.0 17.0 0.00 0.00 0.00 33 1017.6
20260508222004 75 355 8.0 17.0 0.00 0.00 0.00 32 1017.5
20260508221238 74 47 10.0 17.0 0.00 0.00 0.00 32 1017.6
20260508220933 74 21 10.0 17.0 0.00 0.00 0.00 32 1017.6
20260508220620 74 15 9.0 19.0 0.00 0.00 0.00 32 1017.7
20260508220313 74 10 8.0 19.0 0.00 0.00 0.00 33 1017.7
20260508215549 74 17 11.0 19.0 0.00 0.00 0.00 33 1017.8
20260508215247 74 5 11.0 19.0 0.00 0.00 0.00 33 1017.9
20260508214937 74 355 9.0 19.0 0.00 0.00 0.00 33 1017.9
20260508214629 74 11 9.0 18.0 0.00 0.00 0.00 33 1017.8
20260508213857 74 23 10.0 23.0 0.00 0.00 0.00 34 1017.9
20260508213554 74 26 10.0 23.0 0.00 0.00 0.00 34 1017.9
20260508213242 74 5 9.0 23.0 0.00 0.00 0.00 33 1017.9
20260508212527 74 11 12.0 23.0 0.00 0.00 0.00 33 1017.9
20260508212222 74 18 11.0 23.0 0.00 0.00 0.00 34 1018.0
20260508211919 74 355 10.0 23.0 0.00 0.00 0.00 34 1018.0
20260508211617 74 22 9.0 21.0 0.00 0.00 0.00 33 1018.0
20260508211316 74 0 10.0 21.0 0.00 0.00 0.00 33 1018.1
20260508210537 75 35 12.0 21.0 0.00 0.00 0.00 34 1018.1
20260508210224 75 18 11.0 21.0 0.00 0.00 0.00 34 1018.1
20260508205920 75 344 11.0 21.0 0.00 0.00 0.00 33 1018.0
20260508205614 75 351 11.0 19.0 0.00 0.00 0.00 34 1018.1
20260508205308 75 18 11.0 19.0 0.00 0.00 0.00 34 1018.1
20260508205005 75 22 11.0 18.0 0.00 0.00 0.00 34 1018.1
20260508203818 75 344 11.0 22.0 0.00 0.00 0.00 33 1018.2
20260508203058 74 347 10.0 22.0 0.00 0.00 0.00 35 1018.2
20260508202759 74 343 9.0 18.0 0.00 0.00 0.00 36 1018.3
20260508202449 73 22 8.0 18.0 0.00 0.00 0.00 36 1018.3
20260508202139 73 32 10.0 18.0 0.00 0.00 0.00 38 1018.2
20260508201835 72 24 11.0 18.0 0.00 0.00 0.00 38 1018.2
20260508201534 72 19 11.0 18.0 0.00 0.00 0.00 36 1018.4
20260508201232 72 14 10.0 18.0 0.00 0.00 0.00 37 1018.4
20260508200502 73 16 10.0 18.0 0.00 0.00 0.00 36 1018.4
20260508200150 73 24 10.0 18.0 0.00 0.00 0.00 37 1018.4
20260508195839 73 346 9.0 20.0 0.00 0.00 0.00 38 1018.4
20260508195533 73 355 9.0 20.0 0.00 0.00 0.00 38 1018.4
20260508195234 73 5 9.0 20.0 0.00 0.00 0.00 37 1018.4
20260508194933 73 5 11.0 20.0 0.00 0.00 0.00 37 1018.4
20260508194625 73 26 12.0 20.0 0.00 0.00 0.00 37 1018.5
20260508194320 73 329 11.0 20.0 0.00 0.00 0.00 37 1018.5
20260508194008 73 337 9.0 18.0 0.00 0.00 0.00 37 1018.4
20260508193705 73 344 9.0 20.0 0.00 0.00 0.00 38 1018.5
20260508193352 73 14 9.0 20.0 0.00 0.00 0.00 39 1018.4
20260508193051 73 0 10.0 20.0 0.00 0.00 0.00 38 1018.4
20260508192747 73 348 11.0 20.0 0.00 0.00 0.00 39 1018.6
20260508192444 73 59 11.0 20.0 0.00 0.00 0.00 39 1018.6
20260508192143 72 355 11.0 20.0 0.00 0.00 0.00 40 1018.7
20260508191841 72 0 10.0 19.0 0.00 0.00 0.00 40 1018.6
20260508191544 72 5 10.0 19.0 0.00 0.00 0.00 39 1018.5
20260508191235 72 19 10.0 24.0 0.00 0.00 0.00 39 1018.7
20260508190931 72 30 11.0 24.0 0.00 0.00 0.00 40 1018.8
20260508190206 72 21 12.0 24.0 0.00 0.00 0.00 41 1018.8
20260508185858 72 11 12.0 24.0 0.00 0.00 0.00 41 1018.8
20260508185552 72 16 12.0 24.0 0.00 0.00 0.00 42 1018.8
20260508185253 71 0 11.0 19.0 0.00 0.00 0.00 42 1018.8
20260508184941 71 355 11.0 19.0 0.00 0.00 0.00 42 1018.9
20260508184645 71 355 11.0 19.0 0.00 0.00 0.00 41 1018.9
20260508184344 71 355 11.0 18.0 0.00 0.00 0.00 41 1019.0
20260508184033 72 11 10.0 19.0 0.00 0.00 0.00 42 1019.0
20260508183303 71 33 11.0 19.0 0.00 0.00 0.00 41 1019.0
20260508182527 71 5 12.0 20.0 0.00 0.00 0.00 44 1019.1
20260508182222 70 13 11.0 20.0 0.00 0.00 0.00 43 1019.0
20260508181909 70 15 12.0 21.0 0.00 0.00 0.00 43 1019.3
20260508181607 70 9 12.0 21.0 0.00 0.00 0.00 43 1019.3
20260508181301 70 20 12.0 21.0 0.00 0.00 0.00 44 1019.4
20260508181005 70 31 12.0 21.0 0.00 0.00 0.00 44 1019.4
20260508180655 70 355 11.0 21.0 0.00 0.00 0.00 43 1019.5
20260508180357 70 34 11.0 21.0 0.00 0.00 0.00 44 1019.5
20260508180059 70 19 10.0 21.0 0.00 0.00 0.00 45 1019.4
20260508175756 70 37 11.0 21.0 0.00 0.00 0.00 44 1019.5
20260508175442 69 15 12.0 21.0 0.00 0.00 0.00 45 1019.5
20260508175130 70 27 13.0 21.0 0.00 0.00 0.00 44 1019.5
20260508174413 70 27 12.0 21.0 0.00 0.00 0.00 45 1019.5
20260508174104 69 36 13.0 21.0 0.00 0.00 0.00 45 1019.4
20260508173750 69 14 13.0 21.0 0.00 0.00 0.00 45 1019.4
20260508173026 69 10 13.0 23.0 0.00 0.00 0.00 45 1019.6
20260508172722 69 17 14.0 23.0 0.00 0.00 0.00 46 1019.5
20260508172000 69 39 14.0 23.0 0.00 0.00 0.00 46 1019.5
20260508171236 69 38 15.0 22.0 0.00 0.00 0.00 47 1019.5
20260508170935 69 23 15.0 22.0 0.00 0.00 0.00 47 1019.4
20260508170632 69 17 15.0 22.0 0.00 0.00 0.00 47 1019.6
20260508170319 69 0 13.0 23.0 0.00 0.00 0.00 47 1019.5
20260508170020 69 10 13.0 23.0 0.00 0.00 0.00 48 1019.5
20260508165708 68 5 12.0 23.0 0.00 0.00 0.00 48 1019.5
20260508165358 68 33 12.0 23.0 0.00 0.00 0.00 49 1019.5
20260508165047 68 39 13.0 23.0 0.00 0.00 0.00 50 1019.5
20260508164748 68 14 13.0 23.0 0.00 0.00 0.00 49 1019.6
20260508164443 68 19 12.0 23.0 0.00 0.00 0.00 49 1019.6
20260508164139 68 12 12.0 22.0 0.00 0.00 0.00 49 1019.6
20260508163841 67 15 12.0 22.0 0.00 0.00 0.00 51 1019.6
20260508163536 67 24 13.0 22.0 0.00 0.00 0.00 50 1019.7
20260508162813 67 10 13.0 22.0 0.00 0.00 0.00 51 1019.8
20260508162042 66 15 13.0 22.0 0.00 0.00 0.00 52 1019.7
20260508161738 66 37 13.0 22.0 0.00 0.00 0.00 52 1019.7
20260508161434 66 28 14.0 22.0 0.00 0.00 0.00 52 1019.8
20260508161121 66 23 14.0 22.0 0.00 0.00 0.00 51 1019.8
20260508160812 66 35 13.0 22.0 0.00 0.00 0.00 52 1019.8
20260508160458 66 28 13.0 22.0 0.00 0.00 0.00 54 1019.8
20260508160153 65 9 13.0 22.0 0.00 0.00 0.00 53 1019.8
20260508155847 65 15 13.0 21.0 0.00 0.00 0.00 54 1019.7
20260508155122 65 26 14.0 21.0 0.00 0.00 0.00 54 1019.7
20260508154816 65 32 14.0 21.0 0.00 0.00 0.00 55 1019.7
20260508154510 65 19 15.0 23.0 0.00 0.00 0.00 54 1019.8
20260508154202 65 16 16.0 23.0 0.00 0.00 0.00 54 1019.7
20260508153445 64 355 16.0 23.0 0.00 0.00 0.00 54 1019.6
20260508153149 64 12 14.0 23.0 0.00 0.00 0.00 56 1019.6
20260508152840 64 10 14.0 23.0 0.00 0.00 0.00 57 1019.6
20260508152527 64 20 13.0 22.0 0.00 0.00 0.00 59 1019.5
20260508151806 63 18 14.0 23.0 0.00 0.00 0.00 59 1019.6
20260508151500 63 36 14.0 23.0 0.00 0.00 0.00 58 1019.5
20260508151156 62 28 15.0 24.0 0.00 0.00 0.00 59 1019.4
20260508150846 62 24 15.0 24.0 0.00 0.00 0.00 61 1019.4
20260508150535 62 26 14.0 24.0 0.00 0.00 0.00 60 1019.4
20260508150229 62 11 14.0 24.0 0.00 0.00 0.00 59 1019.4
20260508145922 62 19 13.0 24.0 0.00 0.00 0.00 60 1019.5
20260508145622 62 28 14.0 24.0 0.00 0.00 0.00 60 1019.4
20260508145315 62 42 15.0 24.0 0.00 0.00 0.00 60 1019.4
20260508145012 62 17 15.0 24.0 0.00 0.00 0.00 61 1019.4
20260508144704 62 30 15.0 24.0 0.00 0.00 0.00 61 1019.4
20260508143942 61 24 16.0 24.0 0.00 0.00 0.00 63 1019.4
20260508143630 61 5 16.0 24.0 0.00 0.00 0.00 62 1019.5
20260508142445 60 5 15.0 25.0 0.00 0.00 0.00 64 1019.4
20260508142134 60 5 15.0 25.0 0.00 0.00 0.00 64 1019.5
20260508141835 60 26 16.0 25.0 0.00 0.00 0.00 64 1019.4
20260508141525 60 21 15.0 25.0 0.00 0.00 0.00 64 1019.5
20260508141213 60 24 14.0 25.0 0.00 0.00 0.00 66 1019.4
20260508140909 59 13 12.0 21.0 0.00 0.00 0.00 68 1019.5
20260508140600 59 21 12.0 21.0 0.00 0.00 0.00 69 1019.5
20260508140250 59 19 12.0 21.0 0.00 0.00 0.00 69 1019.4
20260508135952 58 15 11.0 21.0 0.00 0.00 0.00 71 1019.5
20260508135653 58 24 12.0 21.0 0.00 0.00 0.00 71 1019.5
20260508134938 57 0 11.0 19.0 0.00 0.00 0.00 73 1019.5
20260508134628 56 10 11.0 19.0 0.00 0.00 0.00 74 1019.5
20260508134320 55 11 11.0 19.0 0.00 0.00 0.00 75 1019.4
20260508134023 55 19 11.0 18.0 0.00 0.00 0.00 75 1019.4
20260508133720 55 16 10.0 18.0 0.00 0.00 0.00 76 1019.3
20260508133416 54 12 10.0 18.0 0.00 0.00 0.00 77 1019.4
20260508133112 54 5 9.0 14.0 0.00 0.00 0.00 77 1019.4
20260508132802 54 5 8.0 13.0 0.00 0.00 0.00 78 1019.4
20260508132032 53 5 7.0 11.0 0.00 0.00 0.00 78 1019.4
20260508131723 53 5 8.0 11.0 0.00 0.00 0.00 78 1019.2
20260508131415 53 5 8.0 11.0 0.00 0.00 0.00 78 1019.0
20260508131114 53 5 7.0 11.0 0.00 0.00 0.00 78 1018.9
20260508130815 53 5 7.0 10.0 0.00 0.00 0.00 78 1018.9
20260508125641 53 9 6.0 10.0 0.00 0.00 0.00 79 1018.6
20260508125337 53 9 6.0 10.0 0.00 0.00 0.00 79 1018.5
20260508125036 53 9 6.0 10.0 0.00 0.00 0.00 79 1018.4
20260508124724 52 11 6.0 9.0 0.00 0.00 0.00 79 1018.3
20260508124411 52 11 6.0 9.0 0.00 0.00 0.00 79 1018.2
20260508124059 52 11 6.0 9.0 0.00 0.00 0.00 78 1018.2
20260508123803 52 12 6.0 9.0 0.00 0.00 0.00 78 1018.2
20260508123505 52 12 6.0 8.0 0.00 0.00 0.00 78 1018.2
20260508123200 52 12 6.0 8.0 0.00 0.00 0.00 78 1018.1
20260508122852 52 12 6.0 8.0 0.00 0.00 0.00 78 1018.1
20260508122542 52 12 6.0 8.0 0.00 0.00 0.00 78 1018.1
20260508122246 52 12 5.0 8.0 0.00 0.00 0.00 78 1018.0
20260508121948 52 12 5.0 8.0 0.00 0.00 0.00 77 1018.1
20260508121635 52 12 5.0 8.0 0.00 0.00 0.00 77 1018.1
20260508121335 52 12 5.0 7.0 0.00 0.00 0.00 77 1018.0
20260508121028 52 12 4.0 7.0 0.00 0.00 0.00 77 1018.0
20260508120719 52 12 5.0 8.0 0.00 0.00 0.00 78 1018.0
20260508115953 52 12 5.0 8.0 0.00 0.00 0.00 79 1017.9
20260508115652 51 12 6.0 8.0 0.00 0.00 0.00 79 1018.0
20260508115340 51 12 5.0 8.0 0.00 0.00 0.00 79 1018.0
20260508115033 50 12 5.0 8.0 0.00 0.00 0.00 79 1017.9
20260508114308 50 12 1.0 4.0 0.00 0.00 0.00 77 1017.7
20260508113959 50 12 1.0 4.0 0.00 0.00 0.00 77 1017.6
20260508113653 50 12 1.0 4.0 0.00 0.00 0.00 77 1017.5
20260508113349 50 12 1.0 4.0 0.00 0.00 0.00 76 1017.4
20260508112626 51 12 1.0 4.0 0.00 0.00 0.00 76 1017.2
20260508111844 51 12 1.0 4.0 0.00 0.00 0.00 76 1017.0
20260508111540 51 12 2.0 4.0 0.00 0.00 0.00 76 1017.3
20260508111241 51 12 1.0 4.0 0.00 0.00 0.00 75 1017.3
20260508110100 51 12 0.0 1.0 0.00 0.00 0.00 75 1017.1
20260508105749 51 12 0.0 1.0 0.00 0.00 0.00 75 1017.2
20260508105449 51 12 0.0 1.0 0.00 0.00 0.00 75 1017.3
20260508105152 52 12 0.0 0.0 0.00 0.00 0.00 75 1017.3
20260508104841 52 12 0.0 0.0 0.00 0.00 0.00 75 1017.2
20260508104533 52 12 0.0 0.0 0.00 0.00 0.00 74 1017.1
20260508104220 52 12 0.0 0.0 0.00 0.00 0.00 74 1017.3
20260508103917 52 12 0.0 0.0 0.00 0.00 0.00 74 1017.4
20260508103610 52 12 0.0 0.0 0.00 0.00 0.00 74 1017.4
20260508102846 52 12 0.0 4.0 0.00 0.00 0.00 73 1017.5
20260508102542 52 12 0.0 4.0 0.00 0.00 0.00 73 1017.6
20260508102230 52 12 0.0 4.0 0.00 0.00 0.00 73 1017.5
20260508101933 52 12 1.0 5.0 0.00 0.00 0.00 73 1017.4
20260508101621 52 12 2.0 5.0 0.00 0.00 0.00 73 1017.5
20260508101311 52 12 3.0 5.0 0.00 0.00 0.00 73 1017.4
20260508101007 53 12 4.0 9.0 0.00 0.00 0.00 73 1017.6
20260508100654 53 12 4.0 9.0 0.00 0.00 0.00 73 1017.7
20260508100355 53 12 4.0 9.0 0.00 0.00 0.00 72 1017.7
20260508095630 53 12 5.0 9.0 0.00 0.00 0.00 72 1017.6
20260508094445 53 12 5.0 7.0 0.00 0.00 0.00 72 1017.9
20260508094145 53 12 5.0 8.0 0.00 0.00 0.00 71 1018.0
20260508093838 53 12 4.0 8.0 0.00 0.00 0.00 71 1017.8
20260508093532 53 12 5.0 8.0 0.00 0.00 0.00 71 1017.6
20260508093226 53 12 5.0 8.0 0.00 0.00 0.00 71 1017.6
20260508092919 53 12 6.0 8.0 0.00 0.00 0.00 70 1017.6
20260508092616 53 11 5.0 8.0 0.00 0.00 0.00 70 1017.8
20260508092319 54 11 6.0 8.0 0.00 0.00 0.00 70 1017.8
20260508092020 54 11 6.0 8.0 0.00 0.00 0.00 70 1017.8
20260508091722 54 11 6.0 8.0 0.00 0.00 0.00 70 1017.9
20260508091414 54 11 6.0 8.0 0.00 0.00 0.00 70 1018.0
20260508091107 54 11 6.0 8.0 0.00 0.00 0.00 70 1018.1
20260508090801 54 11 6.0 8.0 0.00 0.00 0.00 70 1018.1
20260508090451 54 11 5.0 8.0 0.00 0.00 0.00 70 1018.0
20260508085740 53 11 5.0 8.0 0.00 0.00 0.00 70 1018.1
20260508085432 53 11 5.0 8.0 0.00 0.00 0.00 70 1018.1
20260508085118 53 11 5.0 8.0 0.00 0.00 0.00 71 1018.0
20260508084819 52 10 5.0 8.0 0.00 0.00 0.00 71 1018.2
20260508084512 52 9 5.0 10.0 0.00 0.00 0.00 70 1018.3
20260508084200 53 9 5.0 10.0 0.00 0.00 0.00 70 1018.5
20260508083847 53 9 6.0 10.0 0.00 0.00 0.00 70 1018.6
20260508083533 53 9 7.0 17.0 0.00 0.00 0.00 70 1018.6
20260508083234 52 9 7.0 17.0 0.00 0.00 0.00 70 1018.5
20260508082457 52 9 9.0 17.0 0.00 0.00 0.00 71 1018.6
20260508082148 52 5 9.0 17.0 0.00 0.00 0.00 71 1018.5
20260508081835 51 5 7.0 17.0 0.00 0.00 0.00 70 1018.4
20260508081538 51 355 4.0 14.0 0.00 0.00 0.00 69 1018.6
20260508080819 51 311 0.0 0.0 0.00 0.00 0.00 67 1018.2
20260508080506 51 311 0.0 1.0 0.00 0.00 0.00 67 1018.3
20260508080200 51 311 0.0 0.0 0.00 0.00 0.00 66 1018.2
20260508075850 51 311 0.0 3.0 0.00 0.00 0.00 65 1018.2
20260508075548 51 311 1.0 3.0 0.00 0.00 0.00 65 1018.3
20260508074837 51 311 2.0 6.0 0.00 0.00 0.00 64 1018.3
20260508074537 51 311 2.0 6.0 0.00 0.00 0.00 64 1018.4
20260508074227 51 311 3.0 6.0 0.00 0.00 0.00 63 1018.5
20260508073502 52 311 1.0 6.0 0.00 0.00 0.00 61 1018.6
20260508073205 52 311 0.0 3.0 0.00 0.00 0.00 59 1018.7
20260508072853 52 311 0.0 2.0 0.00 0.00 0.00 58 1018.6
20260508072540 53 311 0.0 0.0 0.00 0.00 0.00 58 1018.7
20260508072237 53 311 1.0 7.0 0.00 0.00 0.00 57 1018.8
20260508071929 53 311 1.0 7.0 0.00 0.00 0.00 56 1018.8
20260508071210 54 311 4.0 20.0 0.00 0.00 0.00 55 1018.8
20260508070904 54 311 6.0 20.0 0.00 0.00 0.00 55 1018.9
20260508070554 54 311 8.0 20.0 0.00 0.00 0.00 56 1018.8
20260508070247 54 311 9.0 20.0 0.00 0.00 0.00 57 1018.8
20260508065939 52 309 8.0 20.0 0.00 0.00 0.00 59 1018.8
20260508065224 51 246 3.0 9.0 0.00 0.00 0.00 62 1018.7
20260508064040 51 236 5.0 7.0 0.00 0.00 0.00 62 1018.4
20260508063319 49 236 4.0 7.0 0.00 0.00 0.00 65 1018.4
20260508062547 47 236 3.0 4.0 0.00 0.00 0.00 67 1018.6
20260508062245 48 236 2.0 4.0 0.00 0.00 0.00 66 1018.5
20260508061933 48 236 2.0 4.0 0.00 0.00 0.00 65 1018.4
20260508061620 48 236 2.0 5.0 0.00 0.00 0.00 64 1018.5
20260508061317 49 236 3.0 5.0 0.00 0.00 0.00 63 1018.6
20260508061010 49 236 3.0 5.0 0.00 0.00 0.00 62 1018.6
20260508060708 50 236 4.0 5.0 0.00 0.00 0.00 61 1018.7
20260508055046 50 236 6.0 9.0 0.00 0.00 0.00 61 1018.7
20260508054739 50 236 6.0 9.0 0.00 0.00 0.00 62 1018.9
20260508054004 49 236 5.0 7.0 0.00 0.00 0.00 62 1018.8
20260508053708 49 236 5.0 7.0 0.00 0.00 0.00 62 1018.8
20260508053401 50 236 5.0 7.0 0.00 0.00 0.00 62 1018.8
20260508053052 50 236 5.0 7.0 0.00 0.00 0.00 61 1018.7
20260508052752 50 236 5.0 7.0 0.00 0.00 0.00 61 1018.8
20260508052454 50 236 5.0 7.0 0.00 0.00 0.00 61 1018.9
20260508052149 50 236 5.0 7.0 0.00 0.00 0.00 62 1018.9
20260508051846 50 236 5.0 7.0 0.00 0.00 0.00 62 1018.9
20260508051549 50 236 5.0 7.0 0.00 0.00 0.00 62 1018.9
20260508051247 49 236 5.0 7.0 0.00 0.00 0.00 63 1018.9
20260508050512 49 236 4.0 7.0 0.00 0.00 0.00 63 1018.9
20260508045800 49 236 4.0 6.0 0.00 0.00 0.00 63 1018.9
20260508045449 49 236 5.0 6.0 0.00 0.00 0.00 63 1018.9
20260508045139 49 236 5.0 6.0 0.00 0.00 0.00 64 1018.9
20260508044838 49 236 5.0 6.0 0.00 0.00 0.00 64 1018.9
20260508044540 49 236 5.0 6.0 0.00 0.00 0.00 64 1018.9
20260508044234 49 236 5.0 6.0 0.00 0.00 0.00 63 1018.9
20260508043924 50 236 5.0 6.0 0.00 0.00 0.00 62 1019.1
20260508043201 51 236 5.0 7.0 0.00 0.00 0.00 61 1019.0
20260508042439 51 236 5.0 7.0 0.00 0.00 0.00 59 1019.1
20260508041243 51 236 6.0 8.0 0.00 0.00 0.00 59 1019.4
20260508040941 51 236 6.0 8.0 0.00 0.00 0.00 60 1019.5
20260508040643 51 236 6.0 8.0 0.00 0.00 0.00 61 1019.5
20260508040345 51 236 5.0 7.0 0.00 0.00 0.00 62 1019.5
20260508035620 51 236 4.0 6.0 0.00 0.00 0.00 63 1019.6
20260508035323 51 236 4.0 5.0 0.00 0.00 0.00 63 1019.6
20260508035019 51 236 4.0 5.0 0.00 0.00 0.00 62 1019.7
20260508034250 51 236 4.0 6.0 0.00 0.00 0.00 61 1019.7
20260508033950 51 236 4.0 6.0 0.00 0.00 0.00 60 1019.7
20260508033641 52 236 4.0 6.0 0.00 0.00 0.00 60 1019.7
20260508033344 52 236 4.0 6.0 0.00 0.00 0.00 59 1019.7
20260508032628 53 236 4.0 6.0 0.00 0.00 0.00 57 1019.7
20260508032315 53 236 4.0 6.0 0.00 0.00 0.00 56 1019.7
20260508031544 54 236 4.0 7.0 0.00 0.00 0.00 54 1019.7
20260508031235 54 236 5.0 7.0 0.00 0.00 0.00 54 1019.7
20260508030932 54 236 5.0 7.0 0.00 0.00 0.00 54 1019.7